�������l�o���
Date,Time,MP-1(��Sv/h),MP-2(��Sv/h),MP-3(��Sv/h),MP-4(��Sv/h),MP-5(��Sv/h),MP-6(��Sv/h),MP-7(��Sv/h),MP-8(��Sv/h),����,����(m/s),���J
2019/05/27,00:00,0.774,1.126,0.770,1.404,1.034,0.444,0.770,0.726,�쐼,1.7,��
2019/05/27,00:10,0.774,1.126,0.772,1.404,1.035,0.445,0.770,0.728,�쐼,2.5,��
2019/05/27,00:20,0.773,1.127,0.772,1.403,1.036,0.443,0.768,0.726,���k��,1.1,��
2019/05/27,00:30,0.774,1.127,0.771,1.407,1.038,0.442,0.769,0.726,�k�k��,2.0,��
2019/05/27,00:40,0.774,1.128,0.770,1.407,1.035,0.444,0.770,0.727,�k,2.3,��
2019/05/27,00:50,0.775,1.126,0.771,1.405,1.035,0.444,0.770,0.727,�k�k��,3.6,��
2019/05/27,01:00,0.776,1.124,0.771,1.405,1.038,0.442,0.770,0.727,�k�k��,6.5,��
2019/05/27,01:10,0.774,1.123,0.770,1.407,1.035,0.442,0.769,0.727,�k��,5.7,��
2019/05/27,01:20,0.774,1.126,0.770,1.405,1.035,0.445,0.770,0.726,�k�k��,5.0,��
2019/05/27,01:30,0.775,1.127,0.770,1.408,1.036,0.444,0.768,0.727,�k�k��,5.9,��
2019/05/27,01:40,0.774,1.126,0.770,1.405,1.036,0.444,0.768,0.728,�k�k��,5.0,��
2019/05/27,01:50,0.774,1.123,0.767,1.403,1.036,0.444,0.771,0.726,�k,4.6,��
2019/05/27,02:00,0.777,1.125,0.770,1.405,1.035,0.444,0.769,0.727,�k,5.0,��
2019/05/27,02:10,0.773,1.125,0.772,1.406,1.034,0.443,0.770,0.727,�k,4.8,��
2019/05/27,02:20,0.775,1.125,0.769,1.408,1.035,0.445,0.770,0.727,�k,4.0,��
2019/05/27,02:30,0.775,1.127,0.769,1.408,1.037,0.445,0.767,0.727,�k�k��,4.4,��
2019/05/27,02:40,0.776,1.127,0.768,1.404,1.035,0.442,0.769,0.727,�k�k��,4.6,��
2019/05/27,02:50,0.774,1.126,0.771,1.405,1.036,0.443,0.770,0.727,�k�k��,3.6,��
2019/05/27,03:00,0.773,1.126,0.771,1.405,1.036,0.442,0.768,0.728,�k�k��,3.5,��
2019/05/27,03:10,0.775,1.124,0.768,1.404,1.034,0.443,0.771,0.726,�k,3.2,��
2019/05/27,03:20,0.773,1.127,0.769,1.404,1.036,0.443,0.769,0.726,�k�k��,4.0,��
2019/05/27,03:30,0.774,1.128,0.770,1.403,1.033,0.442,0.770,0.726,�k�k��,4.6,��
2019/05/27,03:40,0.775,1.125,0.771,1.406,1.035,0.444,0.771,0.726,�k�k��,3.5,��
2019/05/27,03:50,0.774,1.125,0.769,1.407,1.035,0.444,0.770,0.725,�k,3.1,��
2019/05/27,04:00,0.773,1.125,0.768,1.405,1.036,0.443,0.768,0.726,�k,3.3,��
2019/05/27,04:10,0.774,1.126,0.771,1.405,1.035,0.443,0.769,0.725,�k,3.0,��
2019/05/27,04:20,0.773,1.122,0.770,1.407,1.032,0.443,0.768,0.726,�k�k��,3.1,��
2019/05/27,04:30,0.773,1.126,0.769,1.404,1.034,0.443,0.769,0.727,�k�k��,4.0,��
2019/05/27,04:40,0.772,1.125,0.770,1.404,1.034,0.445,0.769,0.725,�k,2.8,��
2019/05/27,04:50,0.773,1.124,0.770,1.404,1.033,0.442,0.769,0.727,�k,3.5,��
2019/05/27,05:00,0.773,1.125,0.767,1.407,1.033,0.442,0.771,0.726,�k,3.6,��
2019/05/27,05:10,0.773,1.126,0.772,1.406,1.034,0.442,0.771,0.725,�k,2.9,��
2019/05/27,05:20,0.774,1.126,0.770,1.405,1.033,0.442,0.769,0.727,�k�k��,2.8,��
2019/05/27,05:30,0.773,1.127,0.771,1.406,1.035,0.443,0.770,0.726,�k�k��,2.0,��
2019/05/27,05:40,0.774,1.126,0.771,1.407,1.033,0.442,0.769,0.727,�k,2.3,��
2019/05/27,05:50,0.775,1.125,0.770,1.407,1.035,0.444,0.770,0.727,�k�k��,2.3,��
2019/05/27,06:00,0.776,1.126,0.770,1.407,1.034,0.444,0.769,0.726,�k�k��,1.2,��
2019/05/27,06:10,0.774,1.126,0.772,1.407,1.035,0.444,0.770,0.727,�k,2.3,��
2019/05/27,06:20,0.775,1.125,0.770,1.406,1.034,0.444,0.769,0.727,�k,2.8,��
2019/05/27,06:30,0.774,1.124,0.772,1.405,1.033,0.444,0.769,0.728,�k�k��,2.9,��
2019/05/27,06:40,0.776,1.123,0.772,1.407,1.035,0.443,0.770,0.729,�k�k��,4.6,��
2019/05/27,06:50,0.777,1.123,0.770,1.406,1.033,0.444,0.772,0.728,�k�k��,3.5,��
2019/05/27,07:00,0.775,1.124,0.772,1.408,1.035,0.443,0.769,0.728,�k�k��,3.2,��
2019/05/27,07:10,0.773,1.121,0.771,1.406,1.037,0.442,0.770,0.727,�k�k��,1.9,��
2019/05/27,07:20,0.774,1.124,0.770,1.406,1.032,0.442,0.769,0.728,�k��,2.3,��
2019/05/27,07:30,0.775,1.123,0.770,1.405,1.034,0.441,0.770,0.728,�k��,1.9,��
2019/05/27,07:40,0.773,1.123,0.771,1.407,1.036,0.444,0.771,0.728,���k��,2.8,��
2019/05/27,07:50,0.775,1.125,0.771,1.407,1.034,0.442,0.771,0.725,���k��,2.9,��
2019/05/27,08:00,0.775,1.124,0.770,1.409,1.034,0.445,0.770,0.725,�k��,2.0,��
2019/05/27,08:10,0.775,1.123,0.772,1.405,1.036,0.444,0.769,0.724,�k�k��,1.7,��
2019/05/27,08:20,0.776,1.125,0.769,1.406,1.034,0.443,0.769,0.725,�k�k��,1.7,��
2019/05/27,08:30,0.776,1.121,0.770,1.408,1.036,0.442,0.771,0.726,�k,1.7,��
2019/05/27,08:40,0.775,1.122,0.769,1.408,1.035,0.442,0.766,0.725,�k�k��,2.8,��
2019/05/27,08:50,0.776,1.121,0.772,1.406,1.034,0.444,0.768,0.727,�k�k��,2.6,��
2019/05/27,09:00,0.776,1.123,0.769,1.406,1.035,0.439,0.772,0.725,�k�k��,2.6,��
2019/05/27,09:10,0.778,1.123,0.771,1.404,1.035,0.439,0.771,0.727,�k,3.3,��
2019/05/27,09:20,0.778,1.125,0.771,1.401,0.979,0.443,0.772,0.726,�k�k��,3.3,��
2019/05/27,09:30,0.776,1.123,0.771,1.403,1.031,0.444,0.770,0.728,�k�k��,4.0,��
2019/05/27,09:40,0.778,1.126,0.770,1.401,1.038,0.443,0.771,0.727,�k�k��,4.0,��
2019/05/27,09:50,0.777,1.126,0.769,1.401,1.039,0.443,0.770,0.726,�k��,3.3,��
2019/05/27,10:00,0.775,1.125,0.772,1.404,1.039,0.443,0.771,0.726,�k��,3.9,��
2019/05/27,10:10,0.778,1.126,0.770,1.399,1.039,0.445,0.769,0.728,�k��,3.9,��
2019/05/27,10:20,0.776,1.128,0.772,1.400,1.039,0.443,0.770,0.727,���k��,4.0,��
2019/05/27,10:30,0.776,1.129,0.771,1.403,1.038,0.443,0.769,0.725,�k��,3.5,��
2019/05/27,10:40,0.775,1.126,0.769,1.404,1.040,0.442,0.769,0.724,���k��,2.2,��
2019/05/27,10:50,0.776,1.128,0.771,1.406,1.038,0.440,0.769,0.725,�k��,2.3,��
2019/05/27,11:00,0.776,1.126,0.772,1.404,1.040,0.442,0.769,0.726,���k��,2.2,��
2019/05/27,11:10,0.776,1.129,0.772,1.404,1.040,0.442,0.769,0.724,�k��,2.6,��
2019/05/27,11:20,0.777,1.131,0.773,1.403,1.041,0.441,0.771,0.725,�k��,2.3,��
2019/05/27,11:30,0.776,1.129,0.773,1.404,1.040,0.441,0.772,0.726,�k�k��,2.0,��
2019/05/27,11:40,0.777,1.129,0.773,1.407,1.041,0.442,0.771,0.727,�k��,1.2,��
2019/05/27,11:50,0.778,1.128,0.771,1.408,1.041,0.441,0.771,0.727,�k��,2.0,��
2019/05/27,12:00,0.778,1.128,0.772,1.409,1.040,0.441,0.769,0.726,���k��,1.7,��
2019/05/27,12:10,0.778,1.130,0.771,1.407,1.041,0.442,0.770,0.727,���k��,2.2,��
2019/05/27,12:20,0.778,1.130,0.773,1.410,1.042,0.441,0.771,0.728,���쓌,2.2,��
2019/05/27,12:30,0.779,1.130,0.773,1.407,1.043,0.442,0.770,0.727,���쓌,2.0,��
2019/05/27,12:40,0.779,1.129,0.773,1.409,1.042,0.441,0.771,0.727,�쓌,2.2,��
2019/05/27,12:50,0.779,1.131,0.772,1.409,1.043,0.441,0.769,0.726,�쓌,3.1,��
2019/05/27,13:00,0.779,1.132,0.774,1.409,1.041,0.442,0.772,0.728,���쓌,3.7,��
2019/05/27,13:10,0.778,1.130,0.773,1.407,1.042,0.441,0.770,0.727,�쓌,3.9,��
2019/05/27,13:20,0.779,1.129,0.774,1.409,1.042,0.442,0.771,0.727,��쓌,4.5,��
2019/05/27,13:30,0.779,1.127,0.772,1.408,1.042,0.441,0.770,0.728,��쓌,3.9,��
2019/05/27,13:40,0.778,1.130,0.773,1.412,1.044,0.441,0.771,0.728,�쓌,4.2,��
2019/05/27,13:50,0.778,1.129,0.774,1.411,1.043,0.441,0.772,0.728,��쓌,4.3,��
2019/05/27,14:00,0.780,1.130,0.772,1.410,1.046,0.442,0.769,0.728,��쓌,4.5,��
2019/05/27,14:10,0.779,1.130,0.775,1.412,1.044,0.442,0.772,0.729,��쓌,4.3,��
2019/05/27,14:20,0.777,1.131,0.774,1.412,1.044,0.441,0.772,0.728,��쓌,4.0,��
2019/05/27,14:30,0.780,1.132,0.773,1.412,1.044,0.444,0.772,0.726,��쓌,4.3,��
2019/05/27,14:40,0.775,1.130,0.774,1.412,1.041,0.443,0.771,0.726,��,4.0,��
2019/05/27,14:50,0.773,1.132,0.773,1.413,1.043,0.445,0.770,0.728,��,3.8,��
2019/05/27,15:00,0.779,1.129,0.773,1.411,1.045,0.442,0.769,0.727,��쓌,4.8,��
2019/05/27,15:10,0.778,1.131,0.774,1.413,1.043,0.444,0.772,0.728,��쓌,5.6,��
2019/05/27,15:20,0.779,1.133,0.773,1.412,1.044,0.442,0.771,0.727,��,5.6,��
2019/05/27,15:30,0.777,1.131,0.775,1.410,1.042,0.443,0.772,0.727,��,6.6,��
2019/05/27,15:40,0.777,1.133,0.774,1.414,1.040,0.444,0.771,0.727,��쓌,6.5,��
2019/05/27,15:50,0.780,1.135,0.775,1.413,1.045,0.442,0.771,0.727,��쓌,7.4,��
2019/05/27,16:00,0.775,1.132,0.774,1.412,1.045,0.442,0.772,0.727,��,7.0,��
2019/05/27,16:10,0.777,1.133,0.774,1.408,1.045,0.442,0.771,0.726,��쓌,6.7,��
2019/05/27,16:20,0.778,1.134,0.774,1.413,1.044,0.443,0.772,0.725,��,6.9,��
2019/05/27,16:30,0.778,1.136,0.773,1.413,1.045,0.443,0.771,0.727,��쓌,7.3,��
2019/05/27,16:40,0.776,1.133,0.774,1.414,1.044,0.441,0.773,0.728,��,6.0,��
2019/05/27,16:50,0.776,1.135,0.774,1.411,1.048,0.443,0.770,0.727,��,4.9,��
2019/05/27,17:00,0.775,1.132,0.775,1.412,1.046,0.444,0.773,0.728,��,6.2,��
2019/05/27,17:10,0.775,1.133,0.775,1.413,1.047,0.443,0.770,0.726,��,7.5,��
2019/05/27,17:20,0.778,1.135,0.775,1.413,1.049,0.442,0.772,0.726,��,8.0,��
2019/05/27,17:30,0.776,1.133,0.774,1.412,1.047,0.442,0.769,0.724,��,8.4,��
2019/05/27,17:40,0.776,1.135,0.773,1.410,1.049,0.443,0.769,0.727,��,7.6,��
2019/05/27,17:50,0.776,1.136,0.774,1.411,1.046,0.440,0.771,0.726,��,7.5,��
2019/05/27,18:00,0.776,1.136,0.775,1.413,1.047,0.444,0.770,0.727,��,8.2,��
2019/05/27,18:10,0.775,1.136,0.776,1.413,1.047,0.443,0.770,0.728,��,8.9,��
2019/05/27,18:20,0.776,1.137,0.775,1.411,1.046,0.444,0.769,0.732,��,8.9,��
2019/05/27,18:30,0.774,1.137,0.777,1.412,1.046,0.445,0.771,0.729,��,8.0,��
2019/05/27,18:40,0.776,1.134,0.778,1.410,1.047,0.445,0.772,0.728,��,7.2,��
2019/05/27,18:50,0.779,1.137,0.777,1.411,1.049,0.445,0.771,0.728,��,6.3,��
2019/05/27,19:00,0.778,1.138,0.776,1.415,1.047,0.445,0.772,0.729,��,6.3,��
2019/05/27,19:10,0.776,1.137,0.778,1.414,1.048,0.444,0.772,0.731,��,9.3,��
2019/05/27,19:20,0.776,1.139,0.776,1.413,1.047,0.443,0.774,0.731,��,9.4,��
2019/05/27,19:30,0.776,1.137,0.776,1.416,1.048,0.442,0.771,0.728,��,10.5,��
2019/05/27,19:40,0.778,1.137,0.775,1.414,1.047,0.444,0.772,0.729,��,10.3,��
2019/05/27,19:50,0.775,1.137,0.776,1.415,1.046,0.445,0.772,0.730,��,9.2,��
2019/05/27,20:00,0.777,1.134,0.776,1.414,1.046,0.445,0.771,0.729,��,8.0,��
2019/05/27,20:10,0.777,1.137,0.777,1.415,1.048,0.444,0.771,0.728,��,7.3,��
2019/05/27,20:20,0.775,1.135,0.775,1.414,1.048,0.445,0.772,0.731,��,6.3,��
2019/05/27,20:30,0.777,1.136,0.777,1.414,1.048,0.444,0.773,0.728,��,5.7,��
2019/05/27,20:40,0.777,1.134,0.777,1.415,1.049,0.445,0.772,0.729,��,5.5,��
2019/05/27,20:50,0.777,1.134,0.774,1.416,1.045,0.444,0.772,0.729,��,4.9,��
2019/05/27,21:00,0.777,1.139,0.775,1.414,1.048,0.443,0.773,0.727,��,5.1,��
2019/05/27,21:10,0.778,1.137,0.775,1.417,1.049,0.444,0.773,0.728,��,5.6,��
2019/05/27,21:20,0.779,1.133,0.777,1.415,1.047,0.445,0.772,0.729,��,6.4,��
2019/05/27,21:30,0.778,1.137,0.774,1.416,1.044,0.443,0.773,0.728,��,5.7,��
2019/05/27,21:40,0.779,1.134,0.774,1.414,1.045,0.445,0.773,0.729,��,5.6,��
2019/05/27,21:50,0.780,1.137,0.777,1.416,1.045,0.444,0.772,0.730,��,4.3,��
2019/05/27,22:00,0.779,1.136,0.777,1.415,1.042,0.444,0.771,0.728,��쐼,3.4,��
2019/05/27,22:10,0.776,1.137,0.778,1.418,1.044,0.446,0.772,0.727,��,3.7,��
2019/05/27,22:20,0.778,1.137,0.778,1.418,1.047,0.445,0.771,0.728,��,3.9,��
2019/05/27,22:30,0.778,1.136,0.775,1.415,1.046,0.445,0.771,0.728,��,4.5,��
2019/05/27,22:40,0.778,1.135,0.774,1.416,1.045,0.446,0.771,0.729,��,5.6,��
2019/05/27,22:50,0.779,1.134,0.777,1.417,1.045,0.445,0.773,0.730,��쐼,4.9,��
2019/05/27,23:00,0.778,1.137,0.776,1.416,1.048,0.444,0.772,0.727,��,5.2,��
2019/05/27,23:10,0.776,1.135,0.776,1.416,1.045,0.443,0.772,0.729,��,4.9,��
2019/05/27,23:20,0.778,1.138,0.774,1.416,1.045,0.443,0.773,0.727,��,4.4,��
2019/05/27,23:30,0.779,1.135,0.778,1.417,1.044,0.446,0.771,0.729,��,4.6,��
2019/05/27,23:40,0.778,1.136,0.776,1.416,1.045,0.446,0.773,0.728,��,6.0,��
2019/05/27,23:50,0.779,1.135,0.775,1.419,1.043,0.447,0.772,0.729,��,5.7,��
